Weather in Gordino

Russia / Kirov Oblast     58°33′47″N   53°33′02″E
temp.,
°C
wind,
m/s
gust,
m/s
humid.,
%
clouds,
%
prec.,
mm/h
press.,
hPa
HPBL,
m
19 april, mon
mon1900:00−2ene310730 0.0 1034382
03:00−3ene26760 0.0 1035215
06:00−2ene35580 0.0 1036367
09:00+2ene35360 0.0 10361402
12:00+4ene34344 0.0 10351614
15:00+4ene34375 0.0 10341609
18:00+2ene24560 0.0 103573
21:00−2ene22630 0.0 103618
20 april, tue
tue2000:00−2e11670 0.0 103610
03:00−2nne00651 0.0 103710
06:000nw01545 0.0 1037136
09:00+5nnw11355 0.0 1036882
12:00+7wnw11325 0.0 10341229
15:00+8nw22325 0.0 10331241
18:00+5n11480 0.0 103210
21:00+2ssw11570 0.0 103310
21 april, wed
wed2100:00+1ese11620 0.0 103210
03:000sse11640 0.0 103210
06:00+3sse13565 0.0 1032131
09:00+8se3538100 0.0 1031831
12:00+10se4634100 0.0 10291121
15:00+10sse4838100 0.0 10281197
18:00+8sse41147100 0.0 1027617
21:00+6sse51452100 0.0 1027655
22 april, thu
thu2200:00+5sse51454100 0.0 1026681
03:00+5s41360100 0.0 1026769
06:00+4s51175100 0.1 1026804
09:00+3s41195100 0.3 1027769
12:00+4s41296100 0.4 1027840
15:00+4s51296100 1.4 1028767
18:00+4s4992100 0.1 1028975
21:00+4s3996100 0.1 1028744
23 april, fri
fri2300:00+3s3995100 0.0 1028644
03:00+3s3898100 0.1 1028506
06:00+3s3897100 0.0 1029396
09:00+5s3691100 0.0 1030436
12:00+7s3481100 0.0 1030680
15:00+9s347397 0.1 1029805
18:00+7sse368559 0.0 1029445
21:00+4sse259578 0.0 1029219